Flag for U.S.A. Weather past 2 weeks in Spartanburg, South Carolina, U.S.A.

Now
55 °F

Sunny.


Feels Like: 55 °F
Forecast: 35 / 56 °F
Wind: No wind

Location: Spartanburg Memorial

Current Time: Dec 18, 2014 at 2:35:44 PM

Latest Report: Dec 18, 2014 at 2:15 PM


Visibility: 10 mi

Pressure: 30.07 "Hg

Humidity: 28%

Dew point: 23 °F

Location of SpartanburgLocation

Historic Weather in Spartanburg — Graph

°F

Spartanburg temperature yesterday

Maximum temperature yesterday: 61 °F (at 1:15 PM)
Minimum temperature yesterday: 45 °F (at 5:15 AM)
Average temperature yesterday: 52 °F

Past Weeks' High & Low Weather Summary

 TemperatureHumidityPressure
High70 °F (Dec 13, 2:55 PM)100% (Dec 3, 6:35 PM)30.46 "Hg (Dec 3, 6:35 PM)
Low28 °F (Dec 11, 3:55 AM)10% (Dec 13, 1:55 PM)29.85 "Hg (Dec 16, 1:35 PM)
Average48 °F56%30.15 "Hg
* Reported Dec 3 1:15 PM — Dec 18 1:35 PM, Spartanburg, Weather by CustomWeather, © 2014

Note: Actual official high and low records may vary slightly from our data, if they occured in-between our weather recording intervals... More about our weather records

Advertising

Spartanburg weather history for previous 24 hours

 ConditionsComfort  
Time TempWeatherWind HumidityBarometerVisibility
1:35 PM
Dec 18
55 °FSunny.3 mph33%30.09 "Hg10 mi
12:55 PM55 °FSunny.3 mph33%30.11 "Hg10 mi
12:35 PM54 °FSunny.No wind35%30.13 "Hg10 mi
12:15 PM54 °FSunny.3 mph38%30.13 "Hg10 mi
11:55 AM54 °FSunny.3 mph38%30.15 "Hg10 mi
11:35 AM52 °FSunny.3 mph41%30.17 "Hg10 mi
11:15 AM52 °FSunny.5 mph44%30.17 "Hg10 mi
10:55 AM50 °FSunny.6 mph47%30.18 "Hg10 mi
10:35 AM48 °FScattered clouds.5 mph46%30.18 "Hg10 mi
10:15 AM46 °FPartly sunny.No wind50%30.18 "Hg10 mi
9:55 AM45 °FPartly sunny.No wind49%30.18 "Hg10 mi
9:35 AM45 °FScattered clouds.No wind49%30.18 "Hg10 mi
9:15 AM45 °FSunny.No wind53%30.18 "Hg10 mi
8:55 AM43 °FSunny.No wind57%30.18 "Hg10 mi
8:35 AM41 °FSunny.No wind70%30.17 "Hg10 mi
8:15 AM41 °FSunny.No wind66%30.16 "Hg10 mi
7:55 AM41 °FSunny.3 mph61%30.15 "Hg10 mi
7:35 AM39 °FSunny.5 mph65%30.15 "Hg10 mi
7:15 AM36 °FClear.No wind81%30.15 "Hg10 mi
6:55 AM39 °FClear.No wind61%30.12 "Hg10 mi
6:35 AM41 °FClear.No wind53%30.12 "Hg10 mi
6:15 AM41 °FClear.No wind57%30.11 "Hg10 mi
5:55 AM41 °FClear.No wind53%30.10 "Hg10 mi
5:35 AM41 °FClear.No wind57%30.10 "Hg10 mi
5:15 AM41 °FClear.No wind57%30.10 "Hg10 mi
4:55 AM37 °FClear.3 mph70%30.10 "Hg10 mi
4:35 AM41 °FClear.No wind61%30.09 "Hg10 mi
3:55 AM41 °FClear.No wind57%30.09 "Hg10 mi
3:35 AM41 °FClear.No wind57%30.09 "Hg4 mi
3:15 AM41 °FClear.No wind57%30.09 "Hg10 mi
2:55 AM41 °FClear.No wind57%30.09 "Hg10 mi
2:35 AM43 °FClear.5 mph49%30.09 "Hg10 mi
2:15 AM43 °FClear.6 mph49%30.08 "Hg10 mi
1:55 AM45 °FClear.3 mph42%30.08 "Hg10 mi
1:35 AM45 °FClear.8 mph42%30.07 "Hg10 mi
1:15 AM45 °FClear.5 mph39%30.07 "Hg10 mi
12:55 AM45 °FClear.3 mph37%30.08 "Hg10 mi
12:35 AM43 °FClear.No wind42%30.08 "Hg10 mi
12:15 AM46 °FClear.3 mph32%30.08 "Hg10 mi
11:55 PM
Dec 17
46 °FClear.3 mph34%30.07 "Hg10 mi
11:35 PM48 °FClear.6 mph32%30.08 "Hg10 mi
11:15 PM48 °FClear.8 mph34%30.08 "Hg10 mi
10:35 PM46 °FClear.6 mph50%30.09 "Hg10 mi
10:15 PM48 °FClear.5 mph50%30.08 "Hg10 mi
9:55 PM50 °FClear.5 mph50%30.08 "Hg10 mi
9:35 PM50 °FClear.6 mph50%30.09 "Hg10 mi
9:15 PM46 °FClear.3 mph66%30.09 "Hg10 mi
8:55 PM46 °FClear.3 mph71%30.09 "Hg10 mi
8:35 PM50 °FClear.No wind58%30.09 "Hg10 mi
8:15 PM52 °FClear.No wind54%30.09 "Hg10 mi
7:55 PM52 °FClear.3 mph58%30.09 "Hg10 mi
7:35 PM52 °FClear.5 mph58%30.08 "Hg10 mi
6:55 PM50 °FClear.3 mph62%30.08 "Hg10 mi
6:35 PM52 °FClear.No wind54%30.07 "Hg10 mi
6:15 PM52 °FClear.No wind54%30.08 "Hg10 mi
5:35 PM55 °FClear.3 mph47%30.07 "Hg10 mi
5:15 PM55 °FSunny.3 mph47%30.07 "Hg10 mi
4:55 PM59 °FSunny.5 mph39%30.07 "Hg10 mi
4:35 PM59 °FSunny.3 mph39%30.07 "Hg10 mi
4:15 PM61 °FSunny.5 mph36%30.06 "Hg10 mi
3:55 PM61 °FSunny.5 mph36%30.05 "Hg10 mi
3:35 PM61 °FSunny.7 mph34%30.05 "Hg10 mi
3:15 PM61 °FSunny.3 mph36%30.05 "Hg10 mi
2:55 PM61 °FSunny.5 mph36%30.05 "Hg10 mi
2:35 PM61 °FSunny.6 mph36%30.06 "Hg10 mi
2:15 PM61 °FSunny.6 mph36%30.06 "Hg10 mi
Weather by CustomWeather, © 2014

See weather overviewHow to use our weather pages